Wind_Speed
35 42 45 45 44 39 35 31 30 28 23 19 15 8 7 5 4 6 5 7 10 13 13 12 12 17 17 21 26 24 24 23 23 21 19 18 17 17 18 19 20 21 21
41 39 44 48 46 43 38 34 33 32 29 25 21 15 13 11 8 8 7 5 8 7 13 16 11 9 13 17 19 27 26 26 25 25 24 22 22 21 21 22 23 25 27
48 43 40 41 47 45 45 42 38 36 34 31 28 25 18 15 13 7 5 9 10 8 9 9 6 5 5 3 14 17 22 29 30 27 27 27 25 25 25 26 30 32 33
47 47 44 39 40 47 49 47 43 42 41 38 34 31 28 21 17 16 11 7 8 9 8 9 8 7 5 6 2 2 6 16 27 32 30 27 27 28 32 29 28 27 29
50 46 48 43 38 38 46 51 48 45 45 44 41 36 32 28 22 20 16 14 12 11 10 10 11 11 11 10 9 7 4 4 4 6 10 15 18 20 22 23 25 25 27
51 53 51 50 46 41 39 43 49 51 47 43 43 41 37 33 28 24 20 21 18 18 18 15 15 15 16 18 16 12 12 11 9 11 15 19 20 22 22 24 27 29 30
51 53 52 49 50 47 41 38 41 47 51 48 42 43 41 38 35 30 25 24 24 22 23 20 17 26 23 21 24 21 20 21 18 24 27 28 29 27 29 31 33 37 38
47 53 47 39 42 37 37 38 37 42 49 53 51 47 46 42 40 36 32 30 29 25 28 25 20 28 29 27 26 26 26 25 27 30 33 35 36 36 37 37 40 43 42
42 51 47 41 33 37 44 38 42 37 44 48 52 49 47 45 44 42 40 37 33 32 31 28 28 33 36 34 34 32 31 30 31 34 36 37 37 38 39 42 44 48 50
42 43 45 46 50 35 36 41 50 46 40 43 47 52 49 46 45 45 46 44 38 39 42 41 43 39 40 36 35 38 37 37 38 39 40 41 46 47 50 52 55 53 51
41 46 46 48 50 46 42 39 35 44 40 39 45 48 48 49 51 48 47 48 46 47 46 47 46 43 42 44 45 41 41 42 43 43 43 46 48 49 51 53 55 54 52
42 46 48 51 50 50 42 47 40 48 47 39 39 42 46 47 46 48 48 51 49 49 50 49 46 48 50 49 46 43 43 43 42 43 43 46 49 50 56 57 56 57 58
45 44 50 52 51 48 46 47 45 40 42 37 38 38 38 43 47 47 52 54 53 53 54 54 52 50 46 44 42 43 46 47 48 51 52 51 52 53 50 54 55 58 58
54 43 51 51 48 45 42 34 34 33 28 29 35 37 37 40 43 44 49 51 49 48 46 45 45 43 41 43 46 47 48 51 55 53 52 54 55 52 54 54 55 53 49
49 49 46 49 45 40 36 30 29 25 22 21 27 27 30 35 43 48 50 48 48 46 46 43 43 43 45 47 47 51 54 55 54 52 52 53 54 53 54 54 51 45 41
53 52 51 53 50 45 39 39 39 29 27 27 25 25 24 26 32 40 48 50 52 53 48 42 42 45 48 49 53 53 51 50 51 53 54 53 52 51 50 49 44 39 37
58 53 59 53 52 43 41 42 32 27 30 29 23 23 25 27 32 35 41 45 46 47 45 45 47 51 54 54 50 47 47 48 50 52 50 48 48 47 46 42 39 36 34
61 60 56 61 56 50 50 52 39 33 36 27 23 25 24 17 19 25 30 35 38 40 39 40 43 44 42 42 41 40 41 41 41 42 41 41 41 40 38 36 33 32 32
69 65 60 63 61 54 54 58 50 44 39 29 21 15 14 14 8 12 12 16 15 17 20 19 21 24 25 27 27 26 28 29 31 32 31 30 31 34 33 32 30 28 29
76 75 70 63 61 59 59 52 55 54 45 31 19 14 14 16 8 8 7 15 15 13 18 15 18 18 16 16 10 14 19 20 20 23 23 23 27 29 30 30 29 26 31
75 75 65 64 61 59 56 56 57 55 44 35 24 15 15 18 16 13 13 12 14 15 11 15 16 20 21 24 19 19 18 18 20 23 26 30 31 33 36 33 34 41 38
76 70 63 64 62 55 55 55 58 52 44 37 34 18 13 19 27 14 18 21 19 22 25 25 20 23 26 25 25 25 24 24 27 28 31 34 37 40 42 45 47 48 49
77 69 64 61 63 59 55 55 59 52 43 37 34 24 20 21 28 23 19 22 24 32 27 19 20 25 25 24 27 32 29 28 29 35 35 37 40 45 48 52 54 55 55
73 66 63 63 62 61 59 53 54 53 50 43 35 35 33 26 29 27 24 26 31 34 27 27 30 31 23 22 26 29 28 31 36 41 38 44 49 51 53 56 60 62 63
67 65 62 60 61 62 58 53 56 54 54 49 41 37 34 33 39 34 32 36 37 39 35 31 29 31 26 23 27 30 30 35 35 34 42 41 43 50 54 57 60 64 63
64 62 61 59 66 60 56 55 56 60 55 45 45 44 45 41 42 39 40 44 46 40 37 38 35 32 30 30 31 32 37 43 40 47 52 47 46 52 46 52 56 54 52
Wind_Direction
228 227 228 228 231 228 232 237 234 234 238 253 265 266 282 265 196 163 170 173 199 219 226 234 266 284 249 246 241 240 238 241 247 250 249 252 252 254 263 268 268 268 268
226 229 231 229 227 230 227 228 233 233 239 247 260 266 265 265 259 223 206 197 196 228 252 257 274 282 255 256 250 240 240 243 242 249 250 254 256 261 265 266 270 274 274
226 226 229 232 233 231 234 230 231 234 241 247 256 263 253 258 255 252 233 226 228 242 224 227 258 307 8 314 255 251 247 249 249 252 251 250 255 260 266 272 274 274 273
228 225 224 227 233 231 233 235 234 237 243 248 251 254 256 245 245 242 239 250 247 245 243 249 261 278 317 323 345 30 270 259 255 257 259 261 257 268 272 274 278 281 281
227 228 224 223 223 232 234 235 234 238 241 244 249 248 246 247 242 237 238 243 240 252 256 271 289 274 271 281 284 280 270 277 291 278 268 266 266 265 270 274 278 281 284
232 228 226 227 226 231 239 234 233 236 242 243 242 248 245 245 243 242 235 239 242 258 268 272 286 291 274 263 266 261 258 263 267 278 276 268 264 271 268 271 277 280 281
231 229 228 233 229 229 231 239 240 236 238 242 243 244 247 246 246 243 239 238 240 249 262 258 283 283 272 269 269 255 254 260 264 270 273 272 274 269 273 274 279 281 280
234 228 223 230 227 228 237 234 242 240 237 238 241 243 241 241 243 243 244 242 239 244 256 255 267 274 272 269 269 261 260 259 259 259 263 267 267 272 277 279 279 279 275
233 229 217 213 210 224 220 226 234 241 233 237 238 242 240 242 246 248 246 246 244 246 252 253 256 260 267 274 268 264 261 261 263 266 269 271 274 278 275 274 271 273 272
232 231 215 217 218 222 224 236 230 240 251 242 237 241 239 237 241 245 249 251 248 238 242 247 249 255 266 267 268 271 263 259 258 262 265 265 261 263 264 268 273 276 275
226 230 217 222 218 220 227 224 237 235 239 241 242 238 236 238 240 244 248 252 252 249 246 250 257 259 262 269 274 270 263 262 266 270 270 269 270 272 272 272 273 277 282
226 229 220 221 226 221 221 222 234 232 236 237 244 246 242 240 239 240 246 249 249 251 253 254 256 262 267 273 272 271 268 269 268 274 275 275 278 280 279 278 280 282 283
225 224 223 221 222 226 230 227 230 240 236 237 240 245 240 239 238 240 244 243 247 253 256 257 262 266 268 268 267 267 271 272 277 277 280 280 281 288 284 281 283 285 287
221 218 215 217 219 223 229 232 238 240 239 236 235 242 246 245 246 247 249 250 251 253 254 255 257 260 266 271 269 274 277 280 283 282 282 285 286 284 287 288 288 289 290
215 216 214 211 211 211 219 220 225 218 227 241 241 243 251 257 255 253 254 255 252 251 256 258 255 259 266 275 276 275 278 280 282 281 282 283 284 286 288 289 289 289 289
206 208 209 209 209 207 217 222 226 230 238 245 255 265 269 264 264 262 260 260 258 256 256 257 257 262 268 272 276 278 279 279 280 281 283 284 283 284 286 288 287 287 287
209 207 205 206 208 203 220 218 210 211 233 238 239 253 264 265 268 266 263 262 261 259 256 255 258 263 267 269 273 276 280 281 283 283 282 281 282 285 285 286 284 285 286
206 200 206 201 203 199 206 199 204 210 217 217 242 252 254 260 268 274 271 268 265 262 260 258 259 261 263 266 271 275 277 280 280 281 282 283 285 285 284 283 286 289 293
205 201 207 207 204 199 201 206 207 211 209 218 234 239 258 258 277 285 271 288 279 267 259 253 264 265 266 268 273 281 283 285 285 287 287 286 283 283 286 287 289 287 286
209 204 206 200 199 196 197 205 203 213 206 210 216 226 246 264 251 248 238 272 269 274 283 281 279 266 264 263 276 303 310 308 301 296 287 282 285 288 291 291 281 280 290
211 208 204 199 204 200 203 210 206 204 204 211 224 222 239 252 228 213 223 245 265 279 270 283 283 306 279 280 277 307 304 289 289 291 287 284 289 293 285 281 277 290 288
208 207 211 201 200 198 203 210 207 209 206 215 224 225 245 252 237 211 226 250 257 279 293 290 279 295 290 279 283 290 298 287 285 289 287 287 290 292 292 291 291 293 293
205 205 207 201 197 199 206 207 208 213 208 217 219 234 255 256 241 220 226 239 271 292 287 281 276 304 295 278 287 290 286 291 292 295 290 288 291 289 284 284 285 286 288
205 205 207 205 200 202 209 210 213 214 215 215 221 235 241 235 236 234 240 251 272 280 278 285 291 285 288 282 283 286 293 289 286 299 300 297 293 289 290 291 290 289 288
203 202 204 204 204 205 212 215 207 212 217 224 225 232 244 248 249 249 264 265 267 269 271 293 296 290 289 286 283 295 300 300 301 310 303 297 300 296 296 295 296 294 294
202 201 202 207 205 207 213 218 218 228 229 228 224 224 239 245 249 252 267 264 268 268 279 291 290 277 275 278 286 292 301 305 302 307 315 297 301 310 298 303 295 292 289
Height
10897 10902 10907 10913 10919 10924 10931 10936 10940 10943 10945 10948 10951 10953 10954 10954 10953 10953 10953 10952 10955 10957 10960 10962 10962 10962 10961 10961 10962 10964 10965 10968 10970 10971 10971 10972 10973 10974 10976 10976 10976 10976 10975
10885 10890 10897 10902 10908 10917 10922 10928 10933 10937 10939 10942 10946 10949 10951 10952 10953 10952 10952 10952 10953 10955 10958 10959 10960 10956 10956 10956 10956 10957 10959 10961 10964 10967 10968 10968 10969 10969 10970 10971 10971 10970 10969
10875 10882 10889 10896 10903 10909 10914 10919 10924 10929 10933 10935 10940 10944 10947 10948 10949 10950 10950 10951 10952 10952 10953 10956 10956 10955 10954 10952 10950 10951 10952 10955 10957 10960 10963 10964 10965 10965 10964 10965 10965 10963 10961
10866 10873 10880 10888 10894 10899 10904 10910 10916 10920 10924 10928 10932 10936 10940 10943 10945 10946 10947 10947 10948 10949 10950 10951 10951 10950 10950 10951 10950 10949 10949 10949 10951 10953 10955 10957 10958 10960 10957 10956 10954 10953 10952
10856 10862 10868 10874 10881 10888 10895 10901 10907 10911 10915 10919 10923 10927 10931 10935 10938 10940 10943 10943 10943 10944 10945 10945 10945 10946 10947 10948 10949 10948 10947 10947 10947 10948 10949 10949 10950 10950 10950 10949 10947 10947 10945
10841 10848 10854 10860 10867 10874 10881 10887 10893 10901 10907 10910 10914 10919 10923 10927 10931 10933 10935 10936 10938 10939 10939 10940 10941 10941 10941 10942 10944 10944 10944 10944 10944 10944 10943 10944 10943 10943 10942 10941 10939 10938 10937
10829 10835 10845 10850 10856 10863 10870 10875 10881 10888 10896 10901 10904 10908 10913 10918 10921 10925 10926 10928 10930 10931 10932 10934 10934 10935 10935 10936 10937 10937 10936 10936 10937 10937 10935 10935 10934 10934 10933 10932 10930 10927 10925
10819 10823 10835 10845 10850 10856 10861 10863 10868 10874 10882 10889 10893 10897 10901 10906 10910 10914 10917 10920 10922 10923 10924 10926 10927 10927 10928 10928 10930 10930 10928 10928 10928 10927 10927 10926 10925 10925 10923 10922 10920 10916 10914
10807 10815 10827 10835 10837 10842 10843 10850 10857 10860 10867 10876 10883 10889 10892 10897 10901 10904 10907 10910 10913 10914 10917 10918 10919 10919 10920 10920 10920 10920 10919 10919 10919 10918 10917 10916 10915 10914 10913 10911 10909 10906 10902
10796 10804 10819 10823 10825 10830 10836 10842 10846 10850 10858 10866 10872 10879 10883 10888 10889 10894 10895 10898 10902 10905 10907 10907 10909 10909 10911 10910 10910 10911 10910 10909 10909 10908 10907 10906 10905 10903 10902 10899 10897 10894 10890
10788 10792 10805 10811 10811 10817 10823 10828 10832 10840 10848 10853 10861 10868 10870 10876 10880 10882 10885 10886 10889 10891 10894 10896 10898 10899 10899 10899 10899 10900 10900 10900 10900 10898 10896 10894 10893 10891 10889 10886 10883 10880 10877
10776 10781 10793 10801 10802 10809 10813 10821 10835 10837 10840 10843 10849 10856 10861 10866 10868 10871 10874 10873 10875 10877 10881 10884 10886 10887 10888 10887 10888 10889 10889 10890 10888 10887 10885 10882 10880 10878 10875 10872 10869 10866 10862
10762 10770 10781 10793 10799 10803 10808 10815 10822 10826 10828 10831 10839 10847 10850 10853 10856 10858 10859 10860 10863 10865 10868 10871 10873 10875 10876 10876 10876 10877 10878 10878 10877 10875 10874 10870 10867 10864 10860 10857 10854 10850 10846
10748 10755 10764 10777 10789 10796 10803 10808 10814 10819 10822 10825 10832 10839 10841 10842 10845 10846 10848 10850 10852 10854 10856 10858 10860 10862 10863 10864 10865 10866 10865 10864 10862 10861 10859 10856 10853 10849 10846 10843 10839 10834 10830
10732 10744 10754 10767 10779 10792 10801 10804 10810 10815 10819 10825 10827 10829 10830 10832 10834 10835 10837 10839 10841 10843 10845 10846 10848 10850 10851 10851 10852 10853 10851 10849 10848 10845 10843 10841 10838 10835 10832 10828 10824 10820 10817
10719 10730 10742 10751 10765 10777 10791 10799 10805 10809 10812 10816 10820 10820 10820 10820 10822 10825 10826 10828 10830 10832 10835 10836 10837 10838 10838 10839 10839 10838 10836 10834 10832 10831 10829 10826 10823 10820 10817 10814 10811 10808 10805
10708 10717 10727 10738 10750 10763 10777 10789 10791 10793 10798 10803 10807 10811 10810 10809 10810 10811 10814 10816 10818 10821 10822 10822 10822 10824 10824 10825 10825 10823 10822 10820 10818 10816 10814 10811 10809 10806 10804 10801 10798 10795 10794
10693 10704 10718 10726 10737 10745 10759 10773 10776 10780 10785 10791 10796 10800 10799 10798 10797 10800 10803 10805 10807 10809 10809 10809 10809 10809 10810 10811 10811 10810 10807 10805 10803 10801 10800 10798 10796 10794 10792 10789 10787 10786 10784
10679 10689 10699 10710 10723 10734 10746 10759 10765 10767 10775 10783 10788 10791 10790 10792 10789 10793 10798 10802 10802 10802 10801 10801 10800 10799 10798 10799 10799 10798 10796 10795 10793 10791 10790 10788 10786 10784 10783 10781 10778 10776 10773
10666 10673 10684 10698 10710 10724 10736 10746 10754 10758 10768 10775 10779 10781 10783 10785 10781 10786 10792 10799 10800 10800 10798 10798 10795 10793 10791 10790 10791 10789 10787 10785 10784 10783 10782 10781 10779 10777 10775 10771 10769 10767 10764
10652 10669 10679 10692 10702 10714 10726 10736 10744 10751 10759 10765 10770 10774 10776 10778 10780 10781 10785 10792 10794 10795 10793 10792 10791 10788 10785 10784 10782 10782 10780 10778 10777 10776 10775 10773 10771 10767 10764 10761 10759 10756 10751
10642 10660 10674 10685 10696 10706 10717 10727 10734 10743 10751 10757 10762 10766 10770 10772 10776 10774 10778 10783 10786 10788 10787 10784 10783 10781 10778 10774 10773 10773 10771 10770 10770 10768 10767 10764 10761 10758 10755 10751 10747 10743 10739
10637 10650 10666 10678 10688 10698 10711 10719 10727 10735 10743 10749 10753 10757 10762 10765 10768 10766 10770 10775 10778 10779 10778 10776 10776 10775 10772 10765 10763 10764 10764 10762 10762 10760 10756 10753 10750 10745 10741 10736 10732 10728 10724
10626 10643 10658 10672 10683 10695 10704 10712 10719 10729 10736 10740 10745 10750 10754 10755 10760 10759 10760 10765 10767 10770 10769 10769 10767 10765 10761 10757 10755 10755 10754 10751 10749 10747 10745 10743 10738 10734 10729 10724 10718 10713 10708
10621 10637 10652 10667 10679 10687 10695 10704 10714 10720 10728 10732 10738 10742 10743 10745 10749 10750 10752 10755 10756 10757 10758 10757 10754 10751 10748 10745 10745 10744 10742 10740 10738 10735 10733 10728 10724 10718 10714 10708 10703 10697 10690
10617 10632 10648 10659 10669 10679 10688 10696 10705 10709 10717 10723 10728 10730 10732 10733 10735 10738 10741 10741 10744 10743 10743 10742 10741 10738 10735 10733 10732 10731 10729 10727 10723 10719 10716 10712 10708 10704 10697 10691 10685 10678 10671